[[{"header":{"parameterUnit":"m.s-1","parameterCategory":1,"la1":30.2992,"la2":30.254,"lo1":-89.0895,"lo2":-89.0443,"dy":0.0025,"dx":0.0025,"nx":19,"ny":19,"refTime":"2026-03-19T09:00:00:Z","depth":0,"parameterNumber":2,"parameterNumberName":"U-component_of_WINDS"},"data":[0,0,0,2.1824,2.1826,2.1924,2.1924,2.2061,2.2062,0,0,0,0,0,0,0,0,0,0,0,2.1803,2.1804,2.1823,2.1826,2.1924,2.1924,2.2061,2.2062,0,0,0,0,0,0,0,0,0,0,0,2.1802,2.1804,2.1805,2.1827,2.1924,2.1924,2.206,2.1982,0,0,0,0,0,0,0,0,0,0,2.1885,2.1875,2.1804,2.1806,2.1827,2.1924,2.1924,2.1978,2.1987,2.2022,0,2.2056,0,2.2062,2.2072,2.2073,0,0,0,2.182,2.1867,2.1886,2.1806,2.1828,2.1923,2.1878,2.1983,2.1993,2.2034,2.2058,2.2063,2.2064,2.2073,2.2074,2.2298,2.23,0,0,2.1814,2.1825,2.1879,2.1893,2.188,2.1875,2.1881,2.1989,2.2016,2.2059,2.2066,2.2066,2.2074,2.2075,2.2297,2.2299,0,0,0,2.1803,2.1822,2.1837,2.1888,2.1904,2.1878,2.1885,2.2011,2.2015,2.2067,2.2068,2.2075,2.2077,2.2296,2.2298,2.2374,0,0,0,2.18,2.1815,2.1835,2.1843,2.1903,2.1959,2.1905,2.2008,2.202,2.2067,2.2075,2.2078,2.2294,2.2297,2.2369,2.2408,0,0,0,2.1794,2.1814,2.1831,2.1843,2.1886,2.1957,2.1967,2.201,2.202,2.2073,2.2079,2.2293,2.2296,2.2364,2.24,2.2469,0,0,0,2.179,2.1898,2.1833,2.1953,2.1885,2.2004,2.1967,2.2055,2.2109,2.2076,2.2294,2.2298,2.2362,2.2395,2.2464,2.2528,2.2556,0,0,2.1932,2.1916,2.1985,2.1929,2.2063,2.1988,2.2133,2.2172,2.2168,2.2255,2.226,2.237,2.2399,2.2468,2.2712,2.2734,0,0,0,2.2034,2.2084,2.2117,2.2169,2.2202,2.2233,2.225,2.2264,2.2338,2.2215,2.2414,2.2431,2.2471,2.2501,2.252,2.2552,2.2312,2.2312,2.2312,2.2249,2.2237,2.2351,2.2351,2.2402,2.2417,2.2457,2.2479,2.2452,2.25,2.2525,2.2674,2.271,2.2724,2.2758,2.2559,2.2559,2.2559,2.256,2.2454,2.2522,2.2484,2.2581,2.2567,2.2648,2.2667,2.2645,2.2717,2.2655,2.2689,2.262,2.2749,2.2778,2.2565,2.2564,2.2564,2.2563,2.2563,2.2592,2.2623,2.2639,2.2712,2.277,2.2766,2.2837,2.2822,2.2809,2.2843,2.2867,2.2866,2.2861,2.2856,2.2856,2.2857,2.2857,2.2857,2.2858,2.2729,2.2745,2.2807,2.285,2.2881,2.292,2.2936,2.2966,2.2994,2.2978,2.2978,2.2946,2.2765,2.2719,2.2866,2.2864,2.2863,2.2863,2.2862,2.294,2.2889,2.2986,2.3017,2.3065,2.3123,2.3103,2.3165,2.3187,2.3222,2.3183,2.3052,2.3033,2.3018,2.298,2.3186,2.3186,2.3186,2.3186,2.3056,2.3045,2.3139,2.3189,2.3237,2.3228,2.3335,2.3349,2.3354,2.3367,2.3335,2.3283,2.3269,2.3259,2.3239,2.3202,2.346,2.3461,2.3461,2.3184,2.3177,2.3272,2.3277,2.3313,2.3345,2.3445,2.3503,2.3499,2.3472,2.3376,2.3364,2.3281,2.3255,2.3225,2.3193,2.3127,0,0]},{"header":{"parameterUnit":"m.s-1","parameterCategory":1,"la1":30.2992,"la2":30.254,"lo1":-89.0895,"lo2":-89.0443,"dy":0.0025,"dx":0.0025,"nx":19,"ny":19,"refTime":"2026-03-19T09:00:00:Z","depth":0,"parameterNumber":3,"parameterNumberName":"V-component_of_WINDS"},"data":[0,0,0,-0.8488,-0.8487,-0.8401,-0.8401,-0.83,-0.8299,0,0,0,0,0,0,0,0,0,0,0,-0.8522,-0.8521,-0.8488,-0.8486,-0.8401,-0.8401,-0.83,-0.8299,0,0,0,0,0,0,0,0,0,0,0,-0.8522,-0.8521,-0.8521,-0.8486,-0.8401,-0.8401,-0.83,-0.8361,0,0,0,0,0,0,0,0,0,0,-0.8442,-0.8482,-0.8521,-0.8521,-0.8486,-0.8401,-0.8401,-0.8364,-0.8357,-0.8343,0,-0.8336,0,-0.8316,-0.8293,-0.8293,0,0,0,-0.8479,-0.8487,-0.8457,-0.8521,-0.8485,-0.8402,-0.8438,-0.836,-0.8353,-0.8335,-0.8334,-0.833,-0.8315,-0.8293,-0.8292,-0.8244,-0.8244,0,0,-0.8484,-0.851,-0.8462,-0.8453,-0.847,-0.844,-0.8435,-0.8355,-0.8355,-0.8334,-0.8328,-0.8313,-0.8292,-0.8291,-0.8243,-0.8244,0,0,0,-0.8502,-0.8513,-0.8485,-0.8457,-0.8442,-0.8438,-0.8432,-0.8359,-0.8348,-0.8327,-0.8312,-0.8292,-0.8291,-0.8243,-0.8243,-0.8275,0,0,0,-0.8505,-0.8524,-0.8488,-0.8502,-0.8444,-0.84,-0.8438,-0.8353,-0.8343,-0.8312,-0.8292,-0.829,-0.8243,-0.8243,-0.8274,-0.8285,0,0,0,-0.8524,-0.8526,-0.8517,-0.8504,-0.8469,-0.8401,-0.8385,-0.835,-0.8335,-0.8293,-0.8289,-0.8243,-0.8243,-0.8273,-0.8283,-0.8279,0,0,0,-0.8551,-0.8544,-0.8518,-0.8504,-0.847,-0.8422,-0.8385,-0.8347,-0.8315,-0.8291,-0.8243,-0.8243,-0.8272,-0.8282,-0.8279,-0.8281,-0.8285,0,0,-0.8557,-0.8546,-0.8536,-0.851,-0.8474,-0.8433,-0.84,-0.8344,-0.8315,-0.8268,-0.8267,-0.8274,-0.8283,-0.8279,-0.8299,-0.8302,0,0,0,-0.8546,-0.8539,-0.8524,-0.8496,-0.8456,-0.8422,-0.8369,-0.8348,-0.8308,-0.8298,-0.8271,-0.8276,-0.8272,-0.8272,-0.8275,-0.827,-0.8245,-0.8245,-0.8245,-0.8589,-0.8555,-0.8535,-0.8491,-0.8465,-0.8412,-0.8386,-0.8348,-0.8319,-0.8314,-0.8299,-0.8316,-0.8317,-0.8319,-0.8314,-0.8298,-0.8299,-0.8299,-0.8299,-0.8593,-0.8577,-0.8542,-0.851,-0.8473,-0.8445,-0.8393,-0.8373,-0.834,-0.8324,-0.8319,-0.8304,-0.8324,-0.8318,-0.8301,-0.83,-0.83,-0.83,-0.83,-0.8617,-0.8603,-0.8581,-0.8538,-0.8508,-0.8462,-0.8433,-0.8399,-0.8367,-0.8363,-0.8344,-0.8343,-0.8338,-0.8356,-0.8356,-0.8357,-0.8357,-0.8357,-0.8357,-0.865,-0.8624,-0.8605,-0.8563,-0.8541,-0.8508,-0.8455,-0.8431,-0.8396,-0.8374,-0.8373,-0.8345,-0.8333,-0.833,-0.8357,-0.8357,-0.8357,-0.8357,-0.8357,-0.8666,-0.8658,-0.8629,-0.8607,-0.8555,-0.8527,-0.8486,-0.8441,-0.8416,-0.8402,-0.8375,-0.8372,-0.8357,-0.8355,-0.8352,-0.8383,-0.8383,-0.8383,-0.8383,-0.8686,-0.8677,-0.864,-0.8607,-0.8572,-0.8532,-0.8497,-0.8456,-0.841,-0.8393,-0.8383,-0.8378,-0.8377,-0.8362,-0.836,-0.8357,-0.8388,-0.8388,-0.8388,-0.8694,-0.8679,-0.8658,-0.8617,-0.8574,-0.8536,-0.8503,-0.8465,-0.8411,-0.8387,-0.8378,-0.8378,-0.8368,-0.8367,-0.8342,-0.8338,-0.8332,0,0]}]]